Regional Weather Roundup
Issued by NWS

Home | Current Version | Previous Version | Graphics & Text | Print | Product List | Glossary Off
Versions: 1 2 3 4 5 6 7 8 9 10 11 12 13 14 15 16 17 18 19 20 21 22 23 24 25 26

929
ASUS43 KDMX 211407
RWRIA

WEATHER ROUNDUP FOR IOWA
NATIONAL WEATHER SERVICE DES MOINES IA
900 AM CDT THU MAY 21 2015

NOTE: "FAIR" INDICATES FEW OR NO CLOUDS BELOW 12,000 FEET WITH NO
SIGNIFICANT WEATHER AND/OR OBSTRUCTIONS TO VISIBILITY.

* - THESE STATIONS ARE NOT NWS STATIONS...THUS NOT UNDER NWS
QUALITY CONTROL.  THEY ALSO DO NOT REPORT WEATHER SUCH
AS PRECIPITATION OR FOG.

IAZ001>003-012>014-020>022-031>034-043>046-211500-
   NORTHWEST IOWA

CITY           SKY/WX    TMP DP  RH WIND       PRES   REMARKS
CARROLL *      SUNNY     54  43  66 W13       30.19F
CHEROKEE *     SUNNY     52  45  76 W8        30.20S
DENISON *      SUNNY     52  45  76 W9        30.21F
LE MARS *      SUNNY     52  43  71 W10       30.23S
ORANGE CITY *  SUNNY     50  43  76 NW16      30.20S
SHELDON *      SUNNY     54  39  58 W14       30.18S
SIOUX CITY     SUNNY     55  42  61 NW12      30.23F
SPENCER        SUNNY     55  40  56 NW15      30.16F
STORM LAKE *   SUNNY     50  43  76 W16G24    30.19F
$$

IAZ055>058-069>071-079>083-090>094-211500-
   SOUTHWEST IOWA

CITY           SKY/WX    TMP DP  RH WIND       PRES   REMARKS
ATLANTIC *     SUNNY     52  43  71 W7        30.24F
AUDUBON *      SUNNY     52  43  71 NW7       30.23F
CLARINDA *     SUNNY     52  45  76 VRB7      30.28S
COUNCIL BLFS * SUNNY     50  45  81 NW9       30.26S
CRESTON *      SUNNY     50  45  81 W13       30.24S
HARLAN  *      SUNNY     52  48  87 NW13      30.27F
LAMONI         SUNNY     53  43  68 W9        30.24F
RED OAK *      SUNNY     50  45  81 W7        30.26S
SHENANDOAH *   SUNNY     52  45  76 W8        30.28S
$$

IAZ047>049-059>061-072>074-084-211500-
   CENTRAL IOWA

CITY           SKY/WX    TMP DP  RH WIND       PRES   REMARKS
AMES           SUNNY     52  43  71 W10       30.18S
ANKENY *       SUNNY     52  43  71 W10       30.19F
CHARITON *     SUNNY     52  45  76 W8        30.22F
DES MOINES     SUNNY     53  42  66 W10       30.20F
GRINNELL*      SUNNY     50  43  76 W10       30.18F
KNOXVILLE *    SUNNY     52  43  71 W13       30.19F
MARSHALLTOWN   SUNNY     51  42  71 W13       30.16F
PELLA *        SUNNY     54  46  76 W10       30.21F
PERRY *          N/A     52  45  76 W18       30.19F
$$

IAZ004>006-015-016-023>025-035-036-211500-
   NORTH CENTRAL IOWA

CITY           SKY/WX    TMP DP  RH WIND       PRES   REMARKS
ALGONA *       SUNNY     55  41  58 NW14      30.14S
CLARION *      SUNNY     52  45  76 W12       30.15F
ESTHERVILLE    SUNNY     58  35  42 NW22      30.13S
FORT DODGE *   SUNNY     54  41  62 W9        30.17S
MASON CITY     SUNNY     52  41  66 W16       30.13S
FOREST CITY *  SUNNY     52  41  66 W10       30.12F
IOWA FALLS *     N/A     52  43  71 W15       30.16S
$$

IAZ007>011-017>019-026>030-037>042-050>054-066-211500-
   NORTHEAST IOWA

CITY           SKY/WX    TMP DP  RH WIND       PRES   REMARKS
CEDAR RAPIDS   SUNNY     50  42  74 W13       30.15F
CHARLES CITY * SUNNY     52  43  71 W8        30.12F
CLINTON *      SUNNY     52  43  71 W14       30.18F
DECORAH *      SUNNY     50  41  71 W7        30.10S
DUBUQUE        SUNNY     50  41  71 W15G25    30.13S
MONTICELLO *   SUNNY     52  43  71 W10       30.15S
OELWEIN *      SUNNY     50  43  76 W14       30.13F
WATERLOO       SUNNY     52  41  66 W8        30.13F
$$

IAZ064-065-067-068-078-211500-
   EAST CENTRAL IOWA

CITY           SKY/WX    TMP DP  RH WIND       PRES   REMARKS
DAVENPORT      SUNNY     52  42  69 W14       30.17F
IOWA CITY      SUNNY     52  42  69 W9        30.19F
MT. PLEASANT * SUNNY     52  41  66 W8        30.20F
MUSCATINE *    SUNNY     54  41  62 W13       30.19F
QUAD CITIES    SUNNY     52  40  63 W14       30.17F
$$

IAZ062-063-075>077-085>089-095>099-211500-
   SOUTHEAST IOWA

CITY           SKY/WX    TMP DP  RH WIND       PRES   REMARKS
BURLINGTON     SUNNY     51  43  74 W7        30.20F
FAIRFIELD *    SUNNY     50  41  71 W13       30.21S
FORT MADISON *   N/A     50  43  76 NW9       30.22S
KEOKUK *       SUNNY     52  45  76 W8        30.22S
OSKALOOSA *      N/A     50  43  76 W12       30.20F
CENTERVILLE *  SUNNY     50  50 100 W10       30.25R
OTTUMWA        SUNNY     51  43  74 W9        30.21S
WASHINGTON *   SUNNY     50 N/A N/A W15       30.20S
$$

ABBREVIATIONS USED IN REMARKS
   TC - TEMPERATURES IN CELSIUS
  WCI - WIND CHILL INDEX
   HX - HEAT INDEX
  VSB - VISIBILITY
$$




USA.gov is the U.S. government's official web portal to all federal, state and local government web resources and services.